Pineville, WV

3:56 PM EST on December 06, 2019 (GMT -0500)
Pineville

Weather History for KI16 - October, 2019

Change the Weather History Date:

Tuesday, October 22, 2019

  Actual Average (KBKW) Record (KBKW)
Temperature  
Mean Temperature 56 °F -  
Max Temperature 68 °F 62 °F 80 °F (1909)
Min Temperature 44 °F 41 °F 10 °F (1913)
Degree Days  
Heating Degree Days 9    
Growing Degree Days 6 (Base 50)    
Moisture  
Dew Point 53 °F    
Average Humidity 83    
Maximum Humidity 95    
Minimum Humidity 43    
Precipitation  
Precipitation 0.00 in - - ()
Sea Level Pressure  
Sea Level Pressure 29.93 in    
Wind  
Wind Speed - ()    
Max Wind Speed -    
Max Gust Speed -    
Visibility 9.4 miles    
Events Rain    
Averages and records for this station are not official NWS values.
T = Trace of Precipitation, MM = Missing Value Source: Averaged Metar Reports

Daily Weather History Graph

Daily Weather History Graph

Search for Another Location

Airport or City:

Astronomy

Oct. 22, 2019 Rise Set
Actual Time 7:40 AM EDT 6:39 PM EDT
Civil Twilight 7:14 AM EDT 7:06 PM EDT
Nautical Twilight 6:43 AM EDT 7:37 PM EDT
Astronomical Twilight 6:13 AM EDT 8:07 PM EDT
Moon 12:58 AM EDT (10/22) 3:39 PM EDT (10/22)
Length of Visible Light 11h 52m
Length of Day
10h 58m
Last Quarter, 37% of the Moon is Illuminated
Oct 22
Last Quarter
Oct 27
New
Nov 4
First Quarter
Nov 12
Full
Nov 19
Last Quarter

Hourly Weather History & Observations

Time (EDT) Temp. Dew Point Humidity Pressure Visibility Wind Dir Wind Speed Gust Speed Precip Events Conditions
12:15 AM 61.7 °F 58.6 °F 90% 29.97 in 10.0 mi North - - N/A   Clear
12:35 AM 61.3 °F 58.5 °F 90% 29.96 in 10.0 mi North - - N/A   Scattered Clouds
12:55 AM 61.9 °F 58.5 °F 89% 29.95 in 10.0 mi North - - N/A   Scattered Clouds
1:15 AM 61.9 °F 58.1 °F 87% 29.95 in 10.0 mi North - - N/A   Mostly Cloudy
1:35 AM 62.8 °F 58.3 °F 85% 29.95 in 10.0 mi North - - N/A   Overcast
1:55 AM 61.9 °F 58.3 °F 88% 29.94 in 10.0 mi North - - N/A   Overcast
2:15 AM 61.9 °F 58.5 °F 89% 29.91 in 10.0 mi North - - N/A   Overcast
2:35 AM 61.7 °F 58.5 °F 89% 29.90 in 10.0 mi North - - N/A   Mostly Cloudy
2:55 AM 61.9 °F 58.5 °F 89% 29.89 in 10.0 mi North - - N/A   Mostly Cloudy
3:15 AM 61.7 °F 58.6 °F 90% 29.89 in 10.0 mi North - - N/A   Mostly Cloudy
3:35 AM 61.7 °F 58.8 °F 90% 29.90 in 10.0 mi North - - N/A   Overcast
3:55 AM 62.1 °F 58.8 °F 89% 29.89 in 10.0 mi North - - N/A   Overcast
4:15 AM 61.9 °F 59.0 °F 90% 29.89 in 10.0 mi North - - N/A   Overcast
4:35 AM 62.1 °F 59.0 °F 90% 29.88 in 10.0 mi North - - N/A   Overcast
4:55 AM 62.6 °F 59.4 °F 89% 29.87 in 10.0 mi North - - N/A   Overcast
5:15 AM 62.6 °F 59.4 °F 89% 29.86 in 10.0 mi North - - N/A   Overcast
5:35 AM 62.4 °F 59.5 °F 90% 29.85 in 10.0 mi North - - N/A   Overcast
5:55 AM 62.8 °F 59.9 °F 90% 29.85 in 10.0 mi North - - N/A   Overcast
6:15 AM 63.5 °F 59.7 °F 87% 29.85 in 10.0 mi North - - N/A   Overcast
6:35 AM 62.8 °F 59.9 °F 90% 29.86 in 10.0 mi North - - N/A   Overcast
6:55 AM 63.1 °F 60.1 °F 90% 29.86 in 10.0 mi North - - N/A   Overcast
7:15 AM 62.8 °F 60.3 °F 91% 29.88 in 10.0 mi North - - N/A   Light Drizzle
7:35 AM 64.4 °F 59.2 °F 83% 29.89 in 10.0 mi North - - N/A Rain Light Rain
7:55 AM 60.6 °F 57.6 °F 90% 29.91 in 5.0 mi North - - N/A Rain Light Rain
8:15 AM 59.9 °F 57.2 °F 91% 29.93 in 10.0 mi North - - N/A Rain Light Rain
8:35 AM 58.6 °F 56.3 °F 92% 29.93 in 10.0 mi North - - N/A Rain Light Rain
8:55 AM 58.1 °F 55.8 °F 92% 29.94 in 4.0 mi North - - N/A Rain Rain
9:15 AM 58.1 °F 55.6 °F 91% 29.94 in 10.0 mi North - - N/A   Overcast
9:35 AM 57.7 °F 55.6 °F 92% 29.95 in 10.0 mi North - - N/A   Overcast
9:55 AM 57.6 °F 55.6 °F 93% 29.97 in 2.5 mi North - - N/A Rain Heavy Rain
10:15 AM 57.4 °F 55.8 °F 94% 29.95 in 1.2 mi North - - N/A Rain Light Rain
10:35 AM 57.2 °F 55.4 °F 94% 29.94 in 5.0 mi North - - N/A Rain Rain
11:15 AM 57.4 °F 55.8 °F 94% 29.95 in 5.0 mi North - - N/A Rain Rain
11:35 AM 57.4 °F 55.8 °F 94% 29.95 in 7.0 mi North - - N/A Rain Rain
11:55 AM 58.6 °F 56.7 °F 93% 29.94 in 10.0 mi North - - N/A   Overcast
12:15 PM 58.3 °F 56.3 °F 93% 29.95 in 10.0 mi North - - N/A Rain Light Rain
12:35 PM 58.5 °F 56.3 °F 93% 29.93 in 5.0 mi North - - N/A Rain Rain
12:55 PM 58.6 °F 56.8 °F 94% 29.93 in 10.0 mi North - - N/A   Overcast
1:15 PM 59.5 °F 57.0 °F 91% 29.92 in 10.0 mi North - - N/A   Overcast
1:35 PM 60.8 °F 55.9 °F 84% 29.90 in 10.0 mi North - - N/A   Mostly Cloudy
1:55 PM 62.6 °F 55.4 °F 77% 29.90 in 10.0 mi North - - N/A   Overcast
2:15 PM 64.2 °F 54.1 °F 70% 29.89 in 10.0 mi North - - N/A   Mostly Cloudy
2:35 PM 64.9 °F 51.4 °F 62% 29.88 in 10.0 mi North - - N/A   Mostly Cloudy
2:55 PM 66.2 °F 52.2 °F 61% 29.88 in 10.0 mi North - - N/A   Mostly Cloudy
3:15 PM 65.5 °F 50.2 °F 58% 29.87 in 10.0 mi North - - N/A   Mostly Cloudy
3:55 PM 67.5 °F 47.3 °F 48% 29.87 in 10.0 mi North - - N/A   Scattered Clouds
4:15 PM 67.5 °F 48.0 °F 50% 29.88 in 10.0 mi North - - N/A   Clear
4:35 PM 68.0 °F 45.5 °F 44% 29.89 in 10.0 mi North - - N/A   Clear
4:55 PM 65.8 °F 42.4 °F 43% 29.90 in 10.0 mi North - - N/A   Scattered Clouds
5:15 PM 63.0 °F 47.1 °F 56% 29.90 in 10.0 mi North - - N/A   Scattered Clouds
5:35 PM 63.9 °F 44.6 °F 50% 29.91 in 10.0 mi North - - N/A   Scattered Clouds
5:55 PM 63.7 °F 41.9 °F 45% 29.91 in 10.0 mi North - - N/A   Scattered Clouds
6:15 PM 61.9 °F 44.1 °F 52% 29.92 in 10.0 mi North - - N/A   Clear
6:35 PM 56.3 °F 47.1 °F 71% 29.92 in 10.0 mi North - - N/A   Clear
6:55 PM 54.5 °F 48.6 °F 80% 29.93 in 10.0 mi North - - N/A   Clear
7:15 PM 52.9 °F 48.4 °F 85% 29.94 in 10.0 mi North - - N/A   Clear
7:35 PM 52.0 °F 47.3 °F 84% 29.95 in 10.0 mi North - - N/A   Clear
7:55 PM 50.9 °F 45.7 °F 82% 29.96 in 10.0 mi North - - N/A   Clear
8:15 PM 49.8 °F 46.0 °F 87% 29.98 in 10.0 mi North - - N/A   Clear
8:35 PM 49.1 °F 45.5 °F 87% 29.98 in 10.0 mi North - - N/A   Clear
8:55 PM 48.2 °F 45.1 °F 89% 29.99 in 10.0 mi North - - N/A   Clear
9:15 PM 48.0 °F 45.0 °F 89% 29.99 in 10.0 mi North - - N/A   Clear
9:35 PM 47.3 °F 44.6 °F 90% 30.00 in 10.0 mi North - - N/A   Clear
9:55 PM 46.6 °F 44.2 °F 92% 30.00 in 10.0 mi North - - N/A   Clear
10:15 PM 46.0 °F 43.9 °F 92% 30.02 in 10.0 mi North - - N/A   Clear
10:35 PM 45.7 °F 43.5 °F 92% 30.02 in 10.0 mi North - - N/A   Clear
10:55 PM 45.5 °F 43.5 °F 93% 30.02 in 10.0 mi North - - N/A   Clear
11:15 PM 45.0 °F 43.0 °F 93% 30.03 in 10.0 mi North - - N/A   Clear
11:35 PM 44.6 °F 43.0 °F 94% 30.03 in 10.0 mi North - - N/A   Clear
11:55 PM 44.2 °F 42.8 °F 95% 30.03 in 10.0 mi North - - N/A   Clear